Home > Weather > Passaic > Past weeks

Flag for USA Past Weather in Passaic, New Jersey, USA — Yesterday and Last 2 Weeks

Now
82 °F

Sunny.


Feels Like: 81 °F
Forecast: 65 / 87 °F
Wind: 3 mph from North

Location: Teterboro Airport

Current Time: Jun 26, 2016 at 11:29:40 AM

Latest Report: Jun 26, 2016 at 10:51 AM


Visibility: 10 mi

Pressure: 30.20 "Hg

Humidity: 38%

Dew Point: 54 °F

Location of PassaicLocation

Past Weather in Passaic — Graph

°F

Passaic Temperature Yesterday

Maximum temperature yesterday: 84 °F (at 1:51 PM)
Minimum temperature yesterday: 63 °F (at 5:51 AM)
Average temperature yesterday: 74 °F

High & Low Weather Summary for the Past Weeks

 TemperatureHumidityPressure
High89 °F (Jun 21, 4:51 PM)90% (Jun 16, 6:51 AM)30.30 "Hg (Jun 16, 6:51 AM)
Low56 °F (Jun 13, 5:51 AM)18% (Jun 15, 3:51 PM)29.60 "Hg (Jun 12, 1:51 PM)
Average74 °F50%29.94 "Hg
* Reported Jun 11 9:51 AM — Jun 26 9:51 AM, Passaic, Weather by CustomWeather, © 2016

Note: Actual official high and low records may vary slightly from our data, if they occured in-between our weather recording intervals... More about our weather records

Advertising

Passaic Weather History for the Previous 24 Hours

Scroll right to see more
 ConditionsComfort  
Time TempWeatherWind HumidityBarometerVisibility
9:51 AM
Sun, Jun 26
80 °FSunny.6 mph38%30.20 "Hg10 mi
8:51 AM75 °FFog.3 mph50%30.21 "Hg10 mi
7:51 AM71 °FFog.5 mph61%30.21 "Hg10 mi
6:51 AM67 °FFog.No wind81%30.21 "Hg10 mi
5:51 AM65 °FFog.No wind85%30.22 "Hg10 mi
4:51 AM65 °FClear.No wind85%30.22 "Hg10 mi
3:51 AM66 °FPassing clouds.No wind81%30.23 "Hg10 mi
2:51 AM68 °FClear.3 mph76%30.22 "Hg10 mi
1:51 AM67 °FClear.No wind71%30.20 "Hg10 mi
12:51 AM69 °FPassing clouds.8 mph66%30.20 "Hg10 mi
11:51 PM
Sat, Jun 25
69 °FClear.3 mph57%30.19 "Hg10 mi
10:51 PM70 °FClear.5 mph57%30.19 "Hg10 mi
9:51 PM70 °FClear.3 mph55%30.19 "Hg10 mi
8:51 PM73 °FSunny.7 mph50%30.17 "Hg10 mi
7:51 PM76 °FSunny.8 mph40%30.16 "Hg10 mi
6:51 PM79 °FSunny.10 mph36%30.14 "Hg10 mi
5:51 PM81 °FSunny.12 mph35%30.16 "Hg10 mi
4:51 PM83 °FSunny.14 mph34%30.15 "Hg10 mi
3:51 PM83 °FSunny.8 mph34%30.15 "Hg10 mi
2:51 PM84 °FSunny.No wind29%30.15 "Hg10 mi
1:51 PM84 °FSunny.3 mph26%30.17 "Hg10 mi
12:51 PM82 °FSunny.6 mph33%30.18 "Hg10 mi
11:51 AM80 °FSunny.6 mph32%30.18 "Hg10 mi
Weather by CustomWeather, © 2016

See weather overviewHow to use our weather pages